Вернуться в каталог

COSMOS 2567

АктивенНавигацияSSO
NORAD 55978·PAYLOAD·🇷🇺 Russia

Запущен Mar 23, 2023 с Plesetsk Cosmodrome

Loading…

Ближайшие Пролёты (ближайшие 24 часа)

TLE

СвежийSource: Space-Track

Эпоха: Sep 14, 2026, 14:01 UTC

1 55978U 23040A   26257.58461214  .00002896  00000-0  11762-3 0  9991
2 55978  97.3416 184.7358 0003053 106.5721 253.5852 15.25370337193688

Отслеживайте COSMOS 2567 в реальном времени с AllMySat

Download on the App Store